Other Surface Observations
Issued by NWS

Home | Current Version | Previous Version | Text Only | Print | Product List | Glossary On
Versions: 1 2 3 4 5 6 7 8 9 10 11 12 13 14 15 16 17 18 19 20 21 22 23 24 25 26 27 28 29 30 31 32 33 34 35 36 37 38 39 40 41 42 43 44 45 46 47 48 49 50
000
SXUS52 KTAE 030419
OSOTAE
OSOTAE
North Florida/South Alabama/Southwest Georgia Weather Roundup
National Weather Service Tallahassee Florida
1200 AM EDT MON AUG 03 2015

Note: "fair" indicates few or no clouds below 12,000 feet with no
significant weather and/or obstructions to visibility.

!FLZ017-115-028-034-025-030500
...North Florida...

CITY           SKY/WX    TMP DP  RH WIND       PRES   REMARKS
TALLAHASSEE    CLEAR     80  76  87 CALM      29.85S
APALACHICOLA   CLOUDY    83  75  77 NW3       29.85S HX  90
PERRY          CLOUDY    76  76 100 CALM      29.84S
CROSS CITY       N/A     77  75  93 SE7       29.81S
JACKSONVILLE   CLOUDY    79  71  76 S12       29.88F
$$

!FLZ112-006-005-002-011-030500
...Florida Panhandle...

CITY           SKY/WX    TMP DP  RH WIND       PRES   REMARKS
MARIANNA       CLEAR     79  77  94 CALM      29.85S
BONIFAY        FAIR      77  75  93 CALM      29.87
PANAMA CITY NW FAIR      82  77  84 SW5       29.86S HX  90
TYNDALL AFB    PTCLDY    85  78  80 W9        29.86S HX  96
TYND DRONE APT FAIR      84  79  84 W6        29.85F HX  97
DE FUNIAK SPR  FAIR      77  76  96 CALM      29.88S
EGLIN AFB      PTCLDY    80  71  74 W5        29.87R
DESTIN         PTCLDY    85  72  65 CALM      29.86S HX  91
HURLBURT       PTCLDY    82  72  71 W8        29.86S
CRESTVIEW      CLEAR     81  74  79 W6        29.88S
PENSACOLA      PTCLDY    82  74  76 SW6       29.88S
$$

!ALZ063-066-030500
...South Alabama...

CITY           SKY/WX    TMP DP  RH WIND       PRES   REMARKS
DOTHAN         CLEAR     79  73  82 NW5       29.91R
OZARK CAIRNS   CLEAR     79  74  84 NW2       29.87S
FT RUCKER HELI CLEAR     77  73  87 CALM      29.86S
RUCKER HELI 3  FAIR      78  75  92 NW1       29.89S
RUCKER HELI 2  FAIR      77  77 100 NW5       29.87R
FLORALA APT    CLEAR     78  74  87 CALM      29.89F
ANDALUSIA      CLEAR     81  74  79 CALM      29.87F
TROY           PTCLDY    77  76  96 CALM      29.88S
EUFALA         FAIR      76  74  93 CALM      29.86F
MOBILE         PTCLDY    82  76  81 SW5       29.89S
$$

!GAZ120>161-030500
...Southwest and South Central Georgia...

CITY           SKY/WX    TMP DP  RH WIND       PRES   REMARKS
THOMASVILLE    CLOUDY    77  75  94 CALM      29.87F
BAINBRIDGE     CLEAR     81  79  94 CALM      29.86R
MOODY AFB      CLOUDY    77  73  88 NE3       29.84F
VALDOSTA       CLOUDY    77  76  96 NE3       29.85F
MOULTRIE       CLOUDY    77  73  88 CALM      29.87F
BLAKELY        CLEAR     79  77  94 CALM      29.86F
ALBANY         CLEAR     78  75  90 CALM      29.88S
TIFTON         CLOUDY    76  74  93 E3        29.88S
FITZGERALD     CLOUDY    78  77  96 E3        29.90F
CORDELE        FAIR      78  77  95 NE3       29.88F
AMERICUS       FAIR      75  75 100 CALM      29.90S
HOMERVILLE     CLOUDY    77  77 100 E3        29.86F
$$

!GMZ750-755-770-775-030500
...Coastal and Buoy Obs...

STATION/POSITION TIME  TEMP    WIND        PRES    VSBY  WAVE
                       AIR SEA DIR/SP/G                  HT/PER
                 (UTC) (F)     (DEG/KT/KT) (MB)    (MI)  (FT/S)
KEATON BEACH     0400   77     350/  4/  6 1010.1R
CEDAR KEY        0400   79     200/ 11/ 13 1010.4F
C TOWER          0400   85     280/ 24/ 26 1010.1F
APALACHICOLA BUO 0350   84 84  270/ 19/ 23 1010.8F         7/ 7
PANAMA CITY BUOY 0350   85 86  280/ 17/ 19 1012.0S         4/ 6
MOBILE BUOY      0350   85 87  260/ 12/ 14 1012.5R         3/ 4
ORANGE BCH AL BU 0350   87 87  250/ 14/ 17 1010.7F         2/ 3
$$



USA.gov is the U.S. government's official web portal to all federal, state and local government web resources and services.